Regional Weather Roundup
Issued by NWS Jackson, KY

Home | Current Version | Previous Version | Text Only | Print | Product List | Glossary Off
Versions: 1 2 3 4 5 6 7 8 9 10 11 12 13 14 15 16 17 18 19 20 21 22 23 24 25 26 27 28 29 30 31 32 33 34 35 36 37 38 39 40 41 42 43 44 45 46 47 48 49 50

000
ASUS43 KJKL 240111
RWRJKL

EAST KENTUCKY HOURLY WEATHER ROUNDUP
NATIONAL WEATHER SERVICE JACKSON KY
900 PM EDT WED APR 23 2014

NOTE: "FAIR" INDICATES FEW OR NO CLOUDS BELOW 12,000 FEET WITH
NO SIGNIFICANT WEATHER AND/OR OBSTRUCTIONS TO VISIBILITY.

* THESE REPORTS ARE NOT UNDER NWS QUALITY CONTROL AND MAY NOT
  REPORT WEATHER SUCH AS PRECIPITATION AND FOG.

KYZ079-080-083-085-087-088-110-112-115-119-120-240200
...EASTERN KENTUCKY...

CITY           SKY/WX    TMP DP  RH WIND       PRES   REMARKS
JACKSON        CLEAR     55  28  35 VRB6      30.04R
LONDON         CLEAR     57  31  37 N7        30.03R
SOMERSET*      CLEAR     54  32  43 NE6       30.05R
MIDDLESBORO*   CLEAR     56  33  41 CALM      30.01R
HARLAN APT*    CLEAR     57  25  28 CALM      30.01R
PIKEVILLE APT* CLEAR     54  28  37 NE6       30.03R
BIG SANDY*     CLEAR     53  31  41 NE7       30.04R
MOREHEAD APT*  CLEAR     54  32  43 NW5       30.08R
$$

KYZ035-036-041-042-044-050-067-078-099-240200
...CENTRAL KENTUCKY...

CITY           SKY/WX    TMP DP  RH WIND       PRES   REMARKS
MT STERLING*   CLEAR     54  34  47 NE3       30.07R
FLEMING/MASON* CLEAR     54  32  43 N3        30.08R
DANVILLE*      CLEAR     48  36  61 CALM      30.06R
RICHMOND*      CLEAR     52  32  46 N3        30.05S
LEXINGTON      CLEAR     54  32  43 NE5       30.06R
FRANKFORT      CLEAR     55  32  41 N3        30.05R
$$

KYZ091>093-OHZ055-061-077-WVZ005-015-034-035-042-240200
...SOUTHERN OHIO/WEST VIRGINIA...

CITY           SKY/WX    TMP DP  RH WIND       PRES   REMARKS
COVINGTON      PTCLDY    54  32  43 N7        30.07R
COLUMBUS       PTCLDY    51  30  44 N6        30.08R
DAYTON         PTCLDY    53  32  44 N3        30.09R
WILMINGTON     CLEAR     49  32  52 N5        30.07R
HUNTINGTON     CLEAR     54  30  40 N6        30.05R
CHARLESTON     CLEAR     55  31  39 N6        30.04R
PINEVILLE*     CLEAR     49  36  59 MISG      30.08R
BECKLEY        CLEAR     49  27  42 NW9       30.02R
BLUEFIELD      CLEAR     53  23  31 NW6       30.03R
$$

VAZ002-007-008-TNZ017-027-036-066-071-240200
...SOUTHWEST VIRGINIA/EAST TENNESSEE...

CITY           SKY/WX    TMP DP  RH WIND       PRES   REMARKS
WISE*          CLEAR     52  23  32 N5        30.04R
ABINGDON*      CLEAR     56  24  28 CALM      30.02R
BRISTOL        PTCLDY    56  24  29 CALM      30.00R
KNOXVILLE      CLEAR     61  31  32 NE7       29.97R
OAK RIDGE      CLEAR     62  28  27 NE3       30.00R
CROSSVILLE     CLEAR     59  27  29 N5        30.02R
NASHVILLE      PTCLDY    60  34  37 N7        30.00R
$$

...KEY TO REMARKS...
VSB - VISIBILITY IN MILES
WCI - WIND CHILL INDEX
HX  - HEAT INDEX

$$



USA.gov is the U.S. government's official web portal to all federal, state and local government web resources and services.